N6ZHV-13 Weather Reports


time (UTC)temp
F
wind
direction
speed
knots
gust
knots
rain 1hr
in
rain 24hr
in
rain mn
in
humidity
%
barometer
mb
20260503192455 59 340 0.0 1.7 0.00 0.04 0.04 86 1016.8
20260503191955 59 277 0.0 3.5 0.00 0.04 0.04 87 1016.7
20260503191454 59 282 0.9 1.7 0.00 0.04 0.04 88 1016.7
20260503190955 59 307 0.9 2.6 0.00 0.04 0.04 89 1016.8
20260503190455 59 281 0.0 3.5 0.00 0.04 0.04 89 1016.8
20260503185955 59 329 0.0 3.5 0.00 0.04 0.04 90 1016.8
20260503185455 59 331 1.7 2.6 0.00 0.04 0.04 91 1016.9
20260503184955 59 281 0.9 2.6 0.00 0.04 0.04 90 1016.9
20260503184455 58 260 0.0 0.9 0.00 0.04 0.04 91 1016.9
20260503183955 58 289 0.0 2.6 0.00 0.04 0.04 90 1016.9
20260503183455 58 282 0.0 3.5 0.00 0.04 0.04 92 1017.0
20260503182955 58 343 0.9 3.5 0.00 0.04 0.04 93 1017.0
20260503182455 58 309 1.7 3.5 0.00 0.04 0.04 92 1017.0
20260503181955 58 357 2.6 2.6 0.00 0.04 0.04 93 1017.0
20260503181455 58 330 1.7 2.6 0.00 0.04 0.04 93 1017.0
20260503180955 58 295 0.9 2.6 0.00 0.04 0.04 92 1016.8
20260503180455 58 313 0.0 3.5 0.00 0.04 0.04 92 1016.9
20260503175955 59 244 0.0 5.2 0.00 0.04 0.04 91 1016.9
20260503175455 59 296 4.3 4.3 0.00 0.04 0.04 90 1016.8
20260503174955 59 30 0.0 1.7 0.00 0.04 0.04 89 1016.8
20260503174455 59 354 0.0 1.7 0.00 0.04 0.04 89 1016.7
20260503173955 59 33 0.0 1.7 0.00 0.04 0.04 90 1016.8
20260503173455 59 49 0.0 1.7 0.00 0.04 0.04 90 1016.8
20260503172955 59 91 0.0 2.6 0.00 0.04 0.04 90 1016.8
20260503172455 59 87 0.0 3.5 0.00 0.04 0.04 90 1016.8
20260503171955 59 84 0.0 1.7 0.00 0.04 0.04 91 1016.7
20260503171455 59 104 1.7 1.7 0.00 0.04 0.04 89 1016.7
20260503170955 59 71 0.0 2.6 0.00 0.04 0.04 91 1016.8
20260503170455 59 161 0.0 0.0 0.00 0.04 0.04 90 1016.8
20260503150955 57 281 0.0 0.0 0.00 0.04 0.04 94 1015.9
20260503150455 57 281 0.0 0.0 0.00 0.04 0.04 95 1015.8
20260503130955 55 309 0.0 0.0 0.01 0.04 0.04 96 1015.4
20260503130455 55 223 0.0 1.7 0.01 0.04 0.04 96 1015.5
20260503110455 56 261 1.7 6.1 0.01 0.02 0.02 96 1014.5
20260503090455 57 236 4.3 5.2 0.00 0.00 0.00 95 1014.3
20260503081458 59 56 0.0 3.5 0.00 0.00 0.00 93 1014.6
20260503081455 59 56 0.0 6.1 0.00 0.00 0.00 93 1014.6
20260503080955 59 111 4.3 6.1 0.00 0.00 0.00 93 1014.6
20260503080455 59 101 3.5 6.1 0.00 0.00 0.00 92 1014.6
20260503072455 59 240 2.6 3.5 0.00 0.00 0.00 91 1014.6
20260503071955 59 136 3.5 3.5 0.00 0.00 0.00 92 1014.5
20260503071455 59 199 1.7 3.5 0.00 0.00 0.00 91 1014.5
20260503070955 59 165 2.6 3.5 0.00 0.00 0.00 91 1014.5
20260503070455 58 178 0.9 3.5 0.00 0.00 0.00 92 1014.5
20260503054955 58 289 0.0 3.5 0.00 0.00 0.00 91 1014.3
20260503054455 58 296 0.9 3.5 0.00 0.00 0.00 91 1014.2
20260503053955 58 298 1.7 4.3 0.00 0.00 0.00 90 1014.1
20260503053455 58 253 2.6 5.2 0.00 0.00 0.00 90 1014.1
20260503052955 59 291 4.3 4.3 0.00 0.00 0.00 89 1014.0
20260503052455 59 261 0.9 2.6 0.00 0.00 0.00 88 1013.9
20260503051955 59 109 0.0 0.9 0.00 0.00 0.00 88 1013.9
20260503051455 59 82 0.0 1.7 0.00 0.00 0.00 88 1013.9
20260503050955 59 9 0.0 1.7 0.00 0.00 0.00 89 1013.8
20260503050456 59 1 0.9 1.7 0.00 0.00 0.00 90 1013.9
20260503045955 59 268 0.0 2.6 0.00 0.00 0.00 89 1013.9
20260503045455 59 306 2.6 2.6 0.00 0.00 0.00 89 1013.9
20260503044955 59 274 0.0 2.6 0.00 0.00 0.00 89 1013.8
20260503044456 59 237 1.7 3.5 0.00 0.00 0.00 89 1013.9
20260503043956 59 285 1.7 2.6 0.00 0.00 0.00 88 1013.8
20260503043456 59 288 1.7 1.7 0.00 0.00 0.00 88 1013.7
20260503042956 59 282 0.0 1.7 0.00 0.00 0.00 88 1013.7
20260503042456 59 267 1.7 3.5 0.00 0.00 0.00 88 1013.6
20260503041956 60 253 0.0 2.6 0.00 0.00 0.00 88 1013.5
20260503041456 59 323 0.9 1.7 0.00 0.00 0.00 88 1013.3
20260503040956 60 271 0.9 3.5 0.00 0.00 0.00 88 1013.2
20260503040456 60 292 1.7 1.7 0.00 0.00 0.00 87 1013.0
20260503035956 60 275 1.7 3.5 0.00 0.00 0.00 87 1012.9
20260503035456 60 340 0.0 3.5 0.00 0.00 0.00 86 1012.9
20260503034956 60 250 2.6 3.5 0.00 0.00 0.00 86 1012.8
20260503034456 60 306 0.9 4.3 0.00 0.00 0.00 86 1012.7
20260503033956 61 243 1.7 4.3 0.00 0.00 0.00 85 1012.5
20260503033456 61 223 0.9 4.3 0.00 0.00 0.00 84 1012.5
20260503032956 60 277 2.6 4.3 0.00 0.00 0.00 84 1012.4
20260503032456 61 270 1.7 5.2 0.00 0.00 0.00 84 1012.4
20260503031956 61 244 3.5 5.2 0.00 0.00 0.00 83 1012.2
20260503031456 62 272 3.5 4.3 0.00 0.00 0.00 83 1012.1
20260503030956 62 284 1.7 4.3 0.00 0.00 0.00 82 1012.1
20260503030456 62 265 1.7 5.2 0.00 0.00 0.00 82 1011.9
20260503025956 62 279 0.0 4.3 0.00 0.00 0.00 82 1011.7
20260503025456 62 271 3.5 5.2 0.00 0.00 0.00 82 1011.6
20260503024956 62 289 1.7 4.3 0.00 0.00 0.00 81 1011.5
20260503024456 63 292 0.9 3.5 0.00 0.00 0.00 80 1011.3
20260503023956 63 222 0.0 5.2 0.00 0.00 0.00 80 1011.2
20260503023456 63 262 3.5 3.5 0.00 0.00 0.00 79 1011.1
20260503023001 64 265 3.5 4.3 0.00 0.00 0.00 78 1011.1
20260503022956 63 236 3.5 4.3 0.00 0.00 0.00 79 1011.1
20260503022456 64 265 3.5 4.3 0.00 0.00 0.00 78 1011.1
20260503021956 64 246 1.7 5.2 0.00 0.00 0.00 77 1011.0
20260503021456 64 237 4.3 6.1 0.00 0.00 0.00 77 1011.0
20260503020956 63 239 6.1 7.0 0.00 0.00 0.00 76 1010.9
20260503020456 64 234 2.6 5.2 0.00 0.00 0.00 75 1010.7
20260503015956 65 234 3.5 7.8 0.00 0.00 0.00 75 1010.7
20260503015456 64 223 3.5 7.0 0.00 0.00 0.00 74 1010.7
20260503014956 65 250 4.3 7.0 0.00 0.00 0.00 73 1010.5
20260503014456 66 246 4.3 7.0 0.00 0.00 0.00 72 1010.5
20260503013956 66 239 4.3 7.0 0.00 0.00 0.00 72 1010.4
20260503013456 66 234 5.2 7.0 0.00 0.00 0.00 71 1010.4
20260503012956 67 248 6.1 6.1 0.00 0.00 0.00 70 1010.3
20260503012456 67 264 2.6 6.1 0.00 0.00 0.00 70 1010.4
20260503011956 67 230 1.7 7.8 0.00 0.00 0.00 71 1010.4
20260503011456 67 234 6.1 7.8 0.00 0.00 0.00 70 1010.4
20260503010956 67 262 4.3 7.0 0.00 0.00 0.00 70 1010.4
20260503010456 68 291 3.5 7.0 0.00 0.00 0.00 69 1010.4
20260503005956 68 234 2.6 6.1 0.00 0.00 0.00 68 1010.4
20260503005456 68 194 3.5 7.0 0.00 0.00 0.00 69 1010.4
20260503004956 68 240 1.7 5.2 0.00 0.00 0.00 69 1010.4
20260503004456 68 247 0.9 7.8 0.00 0.00 0.00 68 1010.5
20260503003956 68 240 2.6 7.0 0.00 0.00 0.00 68 1010.6
20260503003456 69 267 3.5 5.2 0.00 0.00 0.00 66 1010.8
20260503002956 69 251 0.0 7.0 0.00 0.00 0.00 67 1010.9
20260503002456 69 253 1.7 6.1 0.00 0.00 0.00 67 1011.0
20260503001956 69 268 4.3 7.8 0.00 0.00 0.00 68 1011.0
20260503001456 68 257 4.3 8.7 0.00 0.00 0.00 68 1011.0
20260503000956 69 282 4.3 7.8 0.00 0.00 0.00 68 1011.0
20260503000456 69 251 5.2 8.7 0.00 0.00 0.00 68 1009.9
20260502235956 68 205 5.2 8.7 0.00 0.00 0.00 68 1010.9
20260502235456 69 251 1.7 7.0 0.00 0.00 0.00 68 1011.0
20260502234956 69 277 7.0 8.7 0.00 0.00 0.00 67 1011.0
20260502234456 69 240 4.3 7.0 0.00 0.00 0.00 67 1011.1
20260502233956 69 255 2.6 7.0 0.00 0.00 0.00 67 1011.1
20260502233456 69 262 5.2 10.4 0.00 0.00 0.00 68 1011.1
20260502232956 69 306 3.5 10.4 0.00 0.00 0.00 66 1011.2
20260502232456 70 306 2.6 9.6 0.00 0.00 0.00 66 1011.3
20260502231956 69 261 4.3 9.6 0.00 0.00 0.00 66 1011.3
20260502231456 70 243 6.1 9.6 0.00 0.00 0.00 66 1011.3
20260502230956 69 270 4.3 8.7 0.00 0.00 0.00 68 1011.3
20260502230456 69 285 7.8 10.4 0.00 0.00 0.00 69 1011.4
20260502225956 69 279 2.6 9.6 0.00 0.00 0.00 68 1011.5
20260502225456 68 244 7.8 11.3 0.00 0.00 0.00 68 1011.6
20260502224956 69 261 0.9 10.4 0.00 0.00 0.00 67 1011.9
20260502224456 69 255 3.5 9.6 0.00 0.00 0.00 68 1011.8
20260502223956 69 258 2.6 9.6 0.00 0.00 0.00 68 1011.9
20260502223456 69 270 4.3 11.3 0.00 0.00 0.00 67 1012.2
20260502222956 70 270 5.2 11.3 0.00 0.00 0.00 66 1012.3
20260502222456 71 225 4.3 10.4 0.00 0.00 0.00 66 1012.3
20260502221956 71 270 5.2 9.6 0.00 0.00 0.00 66 1012.4
20260502221456 70 233 2.6 9.6 0.00 0.00 0.00 66 1012.6
20260502220956 70 261 6.1 12.2 0.00 0.00 0.00 66 1012.7
20260502220456 70 261 7.0 8.7 0.00 0.00 0.00 67 1012.7
20260502215956 70 267 4.3 12.2 0.00 0.00 0.00 67 1012.9
20260502215456 70 327 3.5 10.4 0.00 0.00 0.00 67 1013.0
20260502214956 71 289 7.0 9.6 0.00 0.00 0.00 65 1013.1
20260502214456 70 189 8.7 9.6 0.00 0.00 0.00 66 1013.1
20260502213956 71 265 4.3 9.6 0.00 0.00 0.00 66 1013.2
20260502213456 70 237 8.7 10.4 0.00 0.00 0.00 67 1013.4
20260502212956 70 233 7.0 10.4 0.00 0.00 0.00 67 1013.4
20260502212456 70 251 1.7 9.6 0.00 0.00 0.00 66 1013.4
20260502211956 70 236 6.1 9.6 0.00 0.00 0.00 66 1013.5
20260502211456 71 240 4.3 10.4 0.00 0.00 0.00 65 1013.5
20260502210956 70 227 6.1 8.7 0.00 0.00 0.00 67 1013.4
20260502210456 71 258 4.3 7.8 0.00 0.00 0.00 67 1013.5
20260502205956 70 230 4.3 7.8 0.00 0.00 0.00 67 1013.5
20260502205456 71 265 0.9 8.7 0.00 0.00 0.00 66 1013.6
20260502204956 70 237 5.2 7.0 0.00 0.00 0.00 67 1013.7
20260502204456 70 293 5.2 7.8 0.00 0.00 0.00 68 1013.7
20260502203956 70 239 7.0 7.8 0.00 0.00 0.00 68 1013.8
20260502203456 69 240 3.5 10.4 0.00 0.00 0.00 68 1013.8
20260502202956 70 220 5.2 7.8 0.00 0.00 0.00 68 1013.8
20260502202456 70 281 3.5 8.7 0.00 0.00 0.00 68 1013.9
20260502201956 70 240 5.2 12.2 0.00 0.00 0.00 66 1014.0
20260502201456 71 246 1.7 7.0 0.00 0.00 0.00 68 1014.0
20260502200956 70 246 0.9 6.1 0.00 0.00 0.00 68 1013.9
20260502200456 70 209 0.9 3.5 0.00 0.00 0.00 69 1013.9
20260502195956 69 212 0.0 5.2 0.00 0.00 0.00 71 1014.2
20260502195456 69 284 0.0 4.3 0.00 0.00 0.00 70 1014.4
20260502194956 69 223 0.9 4.3 0.00 0.00 0.00 71 1014.5
20260502194456 68 247 3.5 6.1 0.00 0.00 0.00 72 1014.7
20260502193956 68 270 4.3 6.1 0.00 0.00 0.00 72 1014.8
20260502193456 67 250 3.5 7.8 0.00 0.00 0.00 73 1014.9
20260502192956 67 178 0.0 8.7 0.00 0.00 0.00 73 1015.0